Theta_e
351 349 352 357 357 357 356 356 357 358 358 359 359 358 358 358 358 357 357 357 356 356 356 356 356 355 354 353 353 353 353 353 353 352 350 350 351 353 353 353 353 352 352 352 352 351 351 350 350 350 349 347 347 347 347 347 346 346 346 346 345 344 344 344 344 343 343 343 344 343 343 343 343 343 342 343 343 342 342 344 342 340 340 341 343
349 350 352 355 356 356 356 356 356 358 358 358 358 358 358 357 357 357 357 357 356 356 355 356 356 355 354 353 353 353 353 353 353 353 350 350 352 352 352 352 351 351 351 351 351 351 350 350 349 348 348 347 348 348 348 347 346 346 346 345 344 344 344 344 344 345 344 344 344 343 342 342 342 342 343 343 343 343 342 342 341 337 338 342 342
350 350 352 355 356 356 356 356 356 357 358 357 358 357 357 357 357 356 356 356 356 356 356 355 355 354 354 353 353 353 352 352 353 353 353 353 352 355 354 351 350 350 349 350 351 350 350 349 348 347 347 348 348 347 347 346 346 345 345 345 345 344 344 344 344 344 344 343 343 343 342 341 341 341 343 343 342 342 342 341 341 341 337 340 341
348 349 353 356 356 356 356 356 356 357 357 357 357 357 357 357 356 356 356 356 356 356 356 355 354 354 354 353 353 353 353 352 352 352 353 353 352 353 353 353 353 350 350 350 350 350 350 348 347 347 346 347 347 348 348 347 347 345 346 346 345 344 343 343 343 343 344 343 342 341 340 337 339 341 341 342 342 341 340 339 341 342 341 340 339
348 350 352 353 354 356 355 355 356 356 356 356 356 356 356 356 357 356 356 356 355 355 355 355 354 354 353 353 352 353 352 352 352 352 352 352 352 352 352 353 353 352 351 349 348 349 348 347 346 346 346 346 348 349 348 347 346 346 346 345 345 344 344 344 344 343 343 344 343 344 336 336 337 341 341 341 340 340 339 339 338 338 338 339 339
349 348 349 351 353 355 355 355 355 356 356 356 356 356 356 355 356 356 355 355 355 355 355 354 354 354 353 353 352 352 352 352 352 351 351 351 351 352 352 352 352 351 348 347 348 347 347 345 345 345 346 348 349 349 349 349 348 347 346 345 344 343 343 343 343 343 343 344 345 344 337 336 335 337 341 340 340 338 338 339 340 339 338 338 339
347 346 347 349 352 354 354 354 355 355 355 355 355 355 355 355 355 355 355 355 354 354 354 354 354 353 353 352 352 352 351 352 351 351 351 350 351 351 351 351 351 350 349 349 346 346 346 345 345 345 346 347 347 348 348 348 347 347 346 345 344 342 342 342 342 344 343 345 341 344 337 336 335 335 340 340 339 339 339 339 338 340 339 339 339
347 347 346 347 352 354 354 354 354 354 354 355 355 354 354 354 354 354 354 354 354 354 354 354 353 353 352 352 351 351 351 351 350 351 350 350 350 350 351 350 350 350 348 349 345 345 346 345 345 345 346 347 346 346 345 346 347 345 345 344 344 343 343 344 343 342 345 341 342 345 337 335 335 336 341 341 340 339 339 340 340 340 340 340 339
347 346 346 349 352 354 354 354 354 354 354 353 353 353 353 353 353 354 354 354 354 353 353 353 353 352 352 352 351 351 351 350 351 351 350 350 350 349 348 347 347 347 346 346 346 346 345 345 345 347 347 347 345 345 346 345 345 345 344 344 342 343 345 343 345 344 344 341 341 341 337 337 337 336 338 339 339 337 337 338 337 338 338 338 337
348 347 347 349 351 354 353 354 353 353 353 353 353 353 353 353 353 353 354 353 353 353 353 353 353 353 352 352 351 351 351 350 350 350 351 350 350 350 350 348 348 347 346 347 346 345 345 345 345 346 346 345 345 345 345 344 345 344 343 343 342 343 343 344 344 343 340 341 342 341 341 343 336 336 339 340 340 340 340 341 340 338 337 337 337
350 349 348 349 352 352 353 353 353 353 353 353 353 353 353 353 353 353 353 353 353 353 353 353 353 352 352 352 351 351 350 350 350 350 350 350 350 349 349 349 348 347 347 347 347 347 346 348 348 347 346 346 345 344 344 344 344 343 343 342 342 342 343 343 343 336 336 339 340 340 342 342 333 333 337 338 339 339 338 339 338 336 337 338 338
350 350 348 349 353 351 352 353 353 353 353 353 353 353 353 352 352 352 352 353 353 353 353 352 352 352 351 352 352 351 351 350 350 350 350 349 349 349 348 347 347 347 346 347 347 347 347 347 347 346 345 344 344 344 344 343 343 343 342 342 341 342 342 342 339 335 338 335 337 337 335 334 331 332 336 336 337 338 338 337 338 338 338 338 338
350 349 349 349 350 351 352 352 353 353 352 352 352 352 352 352 352 352 352 352 352 352 352 352 351 351 351 351 351 351 351 350 350 350 349 349 349 348 347 347 347 346 346 346 346 347 347 346 345 345 344 343 343 343 343 343 343 343 342 341 341 340 341 342 338 337 337 335 337 337 335 334 335 337 336 337 336 336 337 337 336 337 338 337 337
350 348 346 348 350 354 351 352 352 353 352 352 352 352 352 352 352 352 352 352 351 352 351 351 351 351 351 351 350 351 351 350 350 350 350 349 348 348 347 347 347 346 345 345 346 347 347 346 345 344 343 343 342 343 343 343 343 342 341 341 340 340 342 339 340 337 337 336 339 335 335 335 335 339 338 338 337 336 336 336 336 337 337 337 337
348 345 346 348 349 350 353 351 352 352 352 352 352 352 353 352 352 352 352 352 352 352 352 352 351 351 351 351 351 350 350 350 350 349 349 348 348 348 347 346 346 346 345 345 345 346 345 345 344 343 342 341 341 341 341 343 342 342 340 340 339 340 341 336 337 338 336 335 336 335 334 334 341 340 338 337 336 336 336 335 336 336 336 335 337
350 347 348 347 348 350 349 353 351 352 352 352 352 352 352 352 351 351 351 351 352 352 352 351 351 350 350 350 350 350 348 350 349 349 349 348 347 348 347 346 345 345 345 345 345 345 344 344 344 342 342 342 342 342 342 342 342 342 341 341 341 342 340 341 337 338 333 337 337 336 334 336 341 338 337 336 336 335 335 335 335 335 335 335 335
350 349 346 345 347 346 348 349 351 351 351 351 351 351 352 351 351 351 352 352 352 351 351 351 350 350 349 349 349 348 346 346 344 349 348 348 348 347 347 346 345 345 345 345 345 344 344 344 344 343 342 341 341 342 343 343 344 343 342 342 343 341 343 342 339 337 337 337 337 335 335 336 339 338 337 335 336 335 335 335 335 335 334 335 335
347 349 346 346 344 345 346 348 349 349 349 349 348 351 351 351 351 351 351 351 351 351 350 350 350 349 348 347 346 346 345 344 344 347 347 348 349 348 347 347 345 345 345 345 345 344 343 343 344 342 341 341 341 342 342 343 344 343 342 342 343 344 343 344 339 339 332 339 336 337 336 339 340 337 336 336 335 334 334 334 334 334 334 334 334
344 344 348 348 345 346 346 348 348 348 347 348 348 348 350 350 351 351 351 350 350 350 350 349 348 348 347 346 344 345 346 345 344 345 346 347 348 347 348 348 346 345 345 345 344 344 344 344 344 342 340 339 340 341 342 342 342 343 343 343 343 345 345 342 339 335 336 337 336 335 336 340 338 337 336 336 335 334 334 335 334 334 334 334 333
343 343 343 345 349 347 347 346 347 347 347 347 348 348 349 349 349 350 350 350 349 349 349 348 347 347 346 346 345 345 345 344 344 344 345 344 346 346 347 348 346 345 345 345 344 344 345 344 344 342 340 340 340 340 340 341 342 342 343 343 343 344 340 340 340 333 337 337 335 335 338 339 338 337 337 336 335 334 333 334 334 334 334 334 334
341 341 345 345 346 347 347 347 347 347 347 347 348 347 347 349 349 349 349 349 349 348 348 347 347 346 346 345 343 345 344 342 343 342 344 344 344 345 346 346 346 345 345 345 345 345 345 344 344 342 341 340 339 339 340 339 342 341 342 343 343 340 339 339 337 336 336 336 335 335 340 338 338 337 337 336 335 333 333 333 334 333 333 333 333
338 340 343 347 345 347 345 346 346 346 347 348 347 347 347 347 347 346 347 347 347 347 347 346 346 345 344 345 343 344 342 341 342 342 344 343 342 346 345 346 345 345 345 345 344 344 344 343 343 342 341 339 341 337 338 339 340 339 341 342 341 338 339 340 339 337 336 335 335 337 340 338 338 337 336 336 334 333 333 333 333 333 333 332 332
337 338 339 342 344 344 346 345 346 346 347 346 347 347 344 347 345 345 346 347 347 347 346 344 343 342 343 342 345 340 339 340 340 339 340 342 343 345 345 345 345 345 345 345 344 345 344 344 342 341 340 341 336 333 334 334 334 340 340 340 338 338 340 340 337 335 334 334 334 339 338 338 338 337 336 336 335 333 333 333 333 333 332 332 332
337 336 337 340 343 344 345 346 346 346 346 346 346 347 346 346 345 345 344 345 346 344 344 344 342 342 341 344 343 339 341 338 343 344 342 343 343 345 345 345 345 345 345 344 344 344 344 343 342 341 339 335 331 331 331 333 331 334 336 336 336 338 341 340 338 335 334 337 336 341 339 339 338 337 336 335 334 334 333 333 332 332 332 332 332
338 338 337 340 343 344 344 345 346 346 346 346 345 345 347 346 345 345 343 346 344 344 344 342 339 339 339 342 342 342 340 341 341 342 340 341 342 343 343 343 344 343 345 342 342 341 342 340 339 338 333 332 330 330 331 331 333 332 333 335 336 338 342 341 340 335 334 335 337 340 339 338 337 336 336 335 334 334 333 333 332 332 332 331 331
336 332 334 340 342 344 345 345 346 346 345 346 345 346 346 345 344 344 344 344 343 344 344 339 339 338 340 340 341 341 341 339 340 339 340 343 341 341 342 341 340 340 343 340 340 341 340 337 335 333 331 331 331 332 334 336 331 333 333 335 337 338 338 338 339 336 336 336 338 340 340 338 336 337 337 335 334 334 334 332 332 331 332 331 331
333 330 333 334 341 341 342 344 343 344 344 345 345 345 346 343 346 343 341 342 344 342 343 338 339 338 340 340 342 340 340 340 339 339 339 342 339 341 340 339 339 341 340 337 336 339 340 337 336 334 332 332 331 332 337 333 333 329 330 332 333 335 338 337 340 336 335 336 339 340 340 339 338 338 337 335 335 335 335 334 332 331 331 331 331
332 333 334 333 335 336 339 341 340 343 343 343 344 344 345 343 343 343 341 344 341 340 339 341 338 339 339 341 341 340 340 339 339 339 339 339 340 342 342 342 339 340 342 341 339 340 342 341 338 341 334 331 330 332 333 331 335 333 333 332 334 334 336 337 339 336 335 335 338 340 341 340 340 338 338 336 335 335 334 334 333 331 331 331 330
332 333 333 329 330 332 332 339 338 341 341 341 342 343 344 343 343 343 342 340 339 339 340 339 338 337 338 341 342 341 339 340 339 338 339 337 339 341 341 341 340 339 340 340 339 340 336 334 334 334 334 332 331 334 332 331 336 335 331 332 332 332 337 338 340 336 335 335 337 340 341 341 341 341 339 337 336 336 335 333 334 333 331 330 330
331 333 332 332 331 329 330 333 332 332 338 339 341 343 343 341 341 341 342 343 342 340 339 341 341 339 337 342 341 341 342 341 339 340 340 338 339 339 339 338 337 337 337 336 341 336 337 337 334 332 331 331 330 331 332 331 331 331 330 329 330 332 335 335 338 338 336 335 336 339 341 340 341 341 341 339 338 337 336 335 334 334 332 331 330
333 331 331 332 334 329 330 330 332 340 331 332 335 339 342 340 338 339 340 340 341 339 340 339 340 340 341 341 341 341 340 340 341 340 339 339 337 336 336 337 339 339 339 338 340 335 337 334 332 333 331 329 329 330 332 329 330 329 332 329 330 329 332 332 333 334 334 335 335 337 340 341 341 340 341 339 339 337 337 336 335 335 333 333 331
332 333 334 331 336 330 329 333 334 342 345 330 337 336 338 333 338 339 338 339 338 338 337 338 338 337 338 340 341 341 341 342 340 337 338 337 335 334 334 335 337 337 339 338 338 335 338 334 334 333 334 335 333 331 330 329 330 328 329 329 328 329 329 331 331 332 332 336 335 335 337 339 340 339 340 340 341 340 337 337 335 335 333 333 333
334 337 332 335 339 335 334 333 332 342 338 336 334 336 342 335 336 338 336 336 336 335 335 337 339 340 342 340 342 342 342 339 337 335 336 336 336 334 334 337 337 339 339 338 338 338 338 335 334 333 333 334 333 330 329 331 329 330 328 328 328 327 327 328 331 333 331 336 336 334 335 336 338 338 338 340 339 340 340 337 336 336 335 333 334
332 333 335 337 336 337 336 334 332 332 338 334 347 332 336 331 337 340 341 337 337 336 337 336 338 340 344 343 344 342 341 342 334 335 336 337 337 335 336 338 340 341 340 337 337 337 336 336 334 330 334 332 329 330 329 327 328 327 331 330 329 327 330 327 329 330 334 333 335 336 334 334 335 336 337 340 339 338 339 340 337 336 336 335 334
334 333 335 335 337 337 337 334 339 338 335 336 336 335 337 334 333 335 338 340 338 335 335 335 338 342 343 342 342 342 343 343 339 337 335 336 335 337 339 340 340 338 335 335 335 333 335 336 335 332 332 329 327 331 327 326 327 325 329 334 329 329 331 331 330 329 330 331 337 335 335 334 334 334 335 337 339 338 338 339 339 338 337 336 336
334 334 336 337 334 339 339 338 338 339 339 339 339 340 338 337 335 335 336 342 337 338 339 338 338 340 340 342 341 340 341 339 337 338 335 336 336 338 336 337 334 336 335 334 332 332 332 338 340 336 332 326 326 327 329 328 327 326 330 331 331 332 330 330 329 328 327 332 333 335 336 335 335 333 336 335 335 336 337 337 339 339 339 338 337
335 334 334 338 337 338 338 340 338 339 341 341 339 340 340 337 334 338 333 339 337 338 333 336 337 339 339 341 342 343 339 341 338 338 339 337 336 337 338 334 333 334 333 332 332 335 336 337 338 338 336 333 328 329 329 332 332 332 331 330 331 331 332 332 332 331 331 331 332 330 334 332 336 341 336 334 334 335 336 337 338 338 338 339 338
335 335 336 337 336 336 336 339 340 340 341 341 339 341 334 335 334 328 335 330 333 331 334 332 335 335 336 338 339 342 342 338 339 337 336 336 338 333 334 330 333 331 333 333 334 337 334 338 337 336 335 334 332 330 330 332 333 332 331 334 332 333 332 332 333 334 331 328 330 331 331 331 331 334 336 336 335 334 334 335 337 336 337 336 338
335 336 337 338 334 336 337 338 339 340 340 340 341 336 338 328 333 331 331 332 329 333 334 330 331 334 334 338 337 339 339 338 339 340 338 338 337 334 331 333 334 332 332 332 333 334 335 336 333 332 332 330 332 332 331 331 332 333 333 332 333 332 334 333 333 333 332 332 331 329 328 333 333 335 334 334 335 337 334 332 334 334 335 336 337
337 337 337 337 335 337 337 338 339 340 340 340 335 331 331 333 328 334 330 329 328 330 335 331 334 333 334 335 339 345 336 341 340 338 338 338 337 334 332 333 334 334 332 331 331 333 332 333 332 330 328 328 333 331 331 329 331 331 332 333 334 334 333 336 333 332 332 332 332 331 331 332 331 333 334 333 333 334 336 333 334 333 334 335 336
338 337 336 337 336 336 336 336 338 339 337 333 332 330 331 330 337 329 326 333 327 330 329 329 328 328 329 329 331 331 331 330 331 332 338 340 336 333 330 330 333 333 332 333 334 334 333 335 334 333 329 327 328 332 331 330 329 327 329 331 333 335 328 330 332 333 333 333 332 332 333 333 333 332 333 333 333 334 338 336 333 333 333 333 333
335 336 336 337 337 337 336 337 336 336 336 336 338 337 335 325 330 327 326 327 321 325 325 327 328 330 331 331 333 335 334 332 333 333 333 331 337 334 332 332 334 334 333 332 332 333 333 333 334 331 332 329 326 328 330 329 324 323 322 323 327 332 331 330 331 330 338 333 335 332 332 332 329 332 334 331 332 332 332 333 335 335 334 334 333
336 335 337 338 338 337 337 337 335 335 336 337 335 332 331 333 336 332 333 324 326 328 326 327 328 324 334 329 333 335 336 329 330 330 334 330 332 334 331 335 334 335 333 331 331 331 332 333 332 328 326 329 327 329 328 329 323 326 326 323 320 320 324 330 333 335 334 334 336 334 331 330 330 332 337 333 331 334 332 332 333 331 334 334 334
335 336 337 337 337 337 337 336 335 335 334 335 333 333 333 333 332 330 330 328 324 327 328 330 328 326 325 329 333 334 329 328 327 326 325 330 330 328 332 331 333 336 334 331 331 329 331 331 330 328 327 322 326 326 329 327 327 324 318 319 319 319 315 320 324 329 331 332 334 334 334 331 331 332 334 334 334 334 334 336 335 334 333 334 337
334 334 336 335 336 337 337 336 334 333 333 334 332 331 331 331 331 329 327 326 328 327 325 325 327 327 327 330 332 331 329 328 329 326 325 326 328 327 331 330 332 335 335 331 331 330 329 329 330 328 327 324 322 326 327 330 328 329 324 319 316 315 316 320 323 325 330 330 331 332 332 332 332 334 334 333 334 334 334 333 334 335 334 333 333
332 335 337 338 337 336 337 335 333 332 332 333 331 330 329 328 328 324 323 323 323 325 322 322 326 326 323 331 326 327 328 328 325 325 326 328 331 331 328 330 327 330 326 328 330 329 328 329 329 328 326 328 327 325 324 328 329 329 329 328 323 318 318 322 322 316 328 330 330 332 332 333 334 332 335 334 335 335 334 334 334 333 333 332 332
329 336 337 338 337 336 337 333 332 331 331 332 330 328 328 326 326 324 324 324 323 326 327 328 324 326 328 326 328 332 326 328 328 326 326 326 326 325 326 325 327 329 331 331 326 325 324 324 330 329 327 326 328 323 323 323 326 328 328 328 327 327 328 322 317 319 316 323 329 329 331 333 333 334 332 334 335 333 335 335 334 337 336 334 333
326 334 336 337 336 336 336 333 332 331 331 332 329 328 326 325 325 325 325 325 325 322 327 327 328 327 328 327 327 331 329 329 330 328 328 326 327 327 326 325 325 323 324 322 322 322 324 324 326 329 329 329 327 324 323 325 323 322 326 327 327 328 328 327 326 322 318 315 320 328 329 330 330 331 333 333 334 334 337 338 338 337 337 336 337
329 332 335 336 336 336 336 333 332 331 331 332 327 327 327 325 326 327 326 325 323 324 324 324 326 327 328 330 328 325 327 328 326 326 325 325 325 324 322 321 319 318 319 318 319 321 321 322 323 323 324 325 327 326 322 322 324 323 323 323 325 326 326 326 326 325 320 316 317 318 319 326 329 330 332 334 333 336 337 337 337 335 336 333 333
325 328 336 336 336 334 335 333 331 331 331 331 327 327 328 326 326 328 327 323 323 322 323 324 324 328 327 326 326 327 324 329 328 325 322 320 322 322 320 320 321 319 317 316 318 320 322 322 323 323 323 322 323 322 322 323 323 324 324 326 323 322 323 322 323 323 322 320 315 315 318 317 318 325 330 333 333 333 333 334 335 334 334 335 334
328 326 331 335 334 333 335 332 331 331 331 330 328 327 327 326 325 328 327 322 322 323 321 323 323 326 323 324 327 326 327 325 326 325 323 321 322 323 322 320 321 321 320 319 319 319 321 322 322 322 321 322 320 321 320 321 320 317 318 316 314 315 315 314 314 315 313 312 311 311 312 311 309 310 324 328 329 329 329 329 329 330 331 333 334
Wind_Speed
14 15 12 14 15 17 16 15 16 15 15 15 15 15 15 15 15 15 15 14 15 15 15 15 15 15 15 14 12 11 11 11 10 9 10 9 10 10 10 10 11 11 12 13 12 12 12 12 12 13 13 12 12 13 14 14 14 15 15 16 15 15 15 16 15 13 14 16 16 15 14 14 12 13 12 11 10 8 7 5 13 9 6 8 11
16 15 12 13 16 16 16 16 17 15 16 15 15 15 15 15 15 15 14 14 14 15 16 15 15 15 15 14 12 11 11 11 10 10 8 9 9 10 10 9 10 10 11 11 11 11 12 12 11 12 12 12 13 13 12 13 13 14 14 14 13 13 13 13 13 14 14 14 15 16 15 14 12 12 11 11 12 12 14 16 14 8 6 12 13
15 14 12 14 17 16 16 16 16 16 16 15 15 15 15 14 14 15 14 14 14 15 15 15 16 15 15 13 12 12 11 11 10 10 10 9 9 10 10 9 9 10 10 10 10 11 12 11 10 11 11 11 12 12 12 12 13 13 13 13 12 11 11 11 11 12 14 14 15 16 16 15 13 12 13 13 13 15 17 14 13 12 8 13 12
16 13 12 15 18 16 16 17 15 16 15 15 15 15 15 14 14 14 14 14 14 15 15 16 16 15 14 13 12 11 11 11 10 10 10 9 10 9 9 9 9 9 9 9 10 10 11 11 10 11 11 11 11 12 12 13 13 12 13 12 11 10 9 9 10 11 12 15 16 13 7 8 9 13 12 12 13 14 13 12 14 14 13 12 13
16 13 12 12 14 16 16 17 17 16 15 15 15 15 15 15 14 13 13 13 14 14 15 16 15 15 14 13 12 11 10 10 10 10 10 10 9 9 9 9 9 9 8 8 9 10 10 9 10 10 10 10 11 12 12 13 12 12 12 12 10 7 7 7 7 8 10 13 16 10 8 9 8 12 11 12 13 12 11 12 13 11 12 13 13
15 13 12 11 12 14 16 16 16 16 16 15 15 15 14 14 14 14 13 13 14 14 15 15 14 14 13 13 12 11 11 10 9 10 9 9 8 8 8 7 8 7 9 4 6 7 10 7 9 9 9 11 11 12 12 13 12 12 12 11 7 6 4 5 6 6 7 8 9 2 8 8 8 8 12 11 11 10 10 10 12 11 11 13 13
16 12 12 11 10 13 15 16 17 16 15 15 15 15 14 14 14 14 13 13 14 14 14 14 14 13 13 13 12 11 10 9 9 9 9 8 8 7 7 7 7 6 6 5 3 6 8 7 7 9 9 10 10 11 11 12 11 13 11 10 6 2 2 2 2 5 5 6 4 4 5 9 8 7 11 11 9 9 9 10 10 11 12 13 13
13 11 12 11 10 16 16 16 16 16 16 15 15 15 16 15 15 13 14 14 14 14 14 14 13 13 13 12 12 11 10 10 10 9 9 8 7 6 6 7 6 6 7 6 4 7 7 6 6 8 10 10 10 10 10 10 11 11 10 8 4 2 3 2 5 5 5 5 2 4 7 9 8 8 11 11 8 7 8 10 11 10 10 11 12
14 13 12 11 12 18 18 15 16 17 17 16 15 15 14 15 14 13 14 14 14 14 14 14 14 13 13 12 11 10 10 10 10 10 10 10 9 8 7 7 6 6 5 7 6 5 6 6 5 11 10 11 10 10 10 9 10 10 9 6 1 2 6 7 5 7 6 4 6 5 11 10 10 8 9 9 9 7 7 8 8 11 11 11 11
14 13 12 10 12 15 16 15 15 16 17 16 16 16 15 15 14 14 14 14 14 13 14 14 13 13 12 12 11 11 10 10 10 10 10 10 10 10 9 8 7 6 7 8 7 6 6 5 8 11 10 10 11 10 10 10 9 8 7 4 3 5 6 7 9 7 5 5 10 13 11 14 10 8 9 8 8 9 13 15 12 9 8 10 11
15 12 11 12 14 16 16 15 16 16 16 16 16 15 14 14 14 13 13 14 14 14 13 13 13 12 12 12 11 10 10 10 10 10 10 10 9 9 9 8 8 8 8 8 8 9 10 14 14 13 11 11 11 10 9 9 9 7 5 2 4 5 6 8 8 5 6 4 12 10 14 17 7 5 9 7 8 9 11 12 10 8 11 11 10
14 12 12 11 16 15 15 15 15 15 16 15 15 14 14 13 13 13 13 13 13 13 12 12 11 11 11 11 11 10 10 10 10 11 10 10 10 9 9 9 8 8 8 8 9 11 13 14 14 12 10 10 10 9 9 8 7 6 4 3 4 4 9 9 6 3 4 9 7 11 12 12 9 8 9 8 8 9 10 8 9 10 10 10 10
14 13 12 12 12 14 14 14 14 14 14 14 14 13 13 13 13 12 12 12 11 12 12 11 10 10 10 10 10 10 9 9 10 10 10 9 9 9 8 8 8 8 8 8 9 11 13 13 12 11 10 10 8 8 8 8 7 6 5 5 5 6 8 11 7 6 1 4 11 11 12 10 8 12 7 9 8 9 9 9 9 10 10 10 10
14 13 12 11 10 14 14 13 12 13 13 12 11 11 12 12 12 11 11 11 11 11 11 11 10 10 9 9 10 9 9 9 9 10 10 9 8 8 8 8 8 7 8 8 9 11 12 12 12 11 10 10 8 7 8 7 7 6 4 5 5 5 7 7 8 7 3 4 10 13 10 8 8 11 9 8 8 8 9 9 9 10 10 10 10
14 15 13 12 11 11 15 12 11 11 11 10 10 10 10 10 11 11 11 11 11 11 11 11 10 10 9 9 9 8 8 9 9 9 9 9 8 8 8 7 7 7 7 8 9 10 11 11 10 10 10 8 6 5 4 6 7 7 5 4 4 5 6 5 5 7 6 5 10 12 10 8 11 10 9 9 8 9 9 8 9 9 10 10 11
15 15 14 12 12 11 9 11 11 11 10 11 10 11 11 11 11 11 11 11 11 11 10 10 10 9 9 8 8 7 7 8 9 9 8 8 7 7 7 7 7 7 7 7 9 10 10 10 10 9 9 7 5 4 2 1 4 6 6 4 5 5 7 4 6 7 6 1 10 10 9 8 12 11 8 8 9 9 8 9 9 9 9 9 9
14 14 14 14 13 10 9 9 10 13 11 10 10 11 11 11 11 10 11 11 10 10 10 9 9 9 9 8 8 6 5 6 5 8 7 6 6 6 6 6 6 7 7 7 9 9 10 11 10 9 8 7 6 4 4 1 3 5 5 6 6 7 6 4 5 7 2 4 11 10 8 7 11 10 8 8 9 10 9 9 9 9 8 9 9
14 14 14 14 12 11 9 9 11 10 9 10 11 10 10 11 11 10 10 10 10 9 10 9 9 8 9 8 6 6 6 6 3 6 6 4 4 5 5 6 6 6 7 8 9 9 10 10 9 9 8 7 7 5 4 3 1 4 6 6 8 8 5 5 3 4 4 8 11 9 8 11 13 10 9 9 8 9 9 9 8 9 9 8 9
9 13 12 10 11 10 9 9 10 9 8 7 7 9 11 11 10 11 10 9 9 10 10 9 9 9 9 8 7 5 6 6 4 3 3 4 5 5 4 4 6 7 8 9 9 9 10 10 9 9 8 7 6 7 5 5 3 3 7 9 9 6 7 4 4 1 10 10 7 7 8 13 12 12 8 9 8 9 9 8 8 8 9 9 8
8 11 12 11 8 10 8 8 8 9 7 6 7 8 9 10 11 11 10 9 9 9 10 9 10 9 8 7 5 6 4 4 5 3 4 1 4 4 4 4 6 7 8 9 9 10 11 10 8 8 8 8 7 6 6 5 4 2 6 9 10 8 5 4 6 2 10 8 9 7 12 13 13 12 10 9 8 8 8 8 8 8 8 9 9
8 10 9 10 10 10 10 7 8 9 8 8 7 7 8 11 9 10 10 10 10 10 10 11 10 8 7 6 4 4 4 2 2 1 4 3 3 1 5 5 6 8 8 9 9 10 10 10 8 8 7 8 8 7 5 5 7 4 5 8 9 5 6 4 4 7 9 8 9 8 13 13 13 12 10 9 8 8 8 8 8 8 8 8 9
8 6 5 8 8 9 11 10 7 10 8 6 5 6 6 8 8 8 7 8 8 8 7 6 7 4 3 6 4 5 3 1 1 3 3 4 3 3 5 6 6 8 7 8 8 9 9 10 8 8 8 8 8 4 4 5 6 8 6 6 5 4 6 6 1 1 10 7 8 10 14 13 12 12 10 10 9 9 8 8 8 8 7 7 8
9 7 5 8 8 9 9 10 9 8 10 7 5 5 8 5 7 7 6 7 7 7 5 6 6 3 4 4 3 5 3 3 4 6 4 5 4 6 6 8 7 7 7 5 8 7 8 9 9 8 7 7 5 4 4 4 4 7 7 4 4 5 7 4 1 1 9 8 7 14 14 13 13 11 11 9 8 8 8 7 8 8 7 7 7
13 14 10 8 10 9 10 9 10 9 8 6 6 5 5 5 5 5 5 4 4 4 5 6 5 4 3 2 4 6 5 5 7 9 7 4 5 6 6 7 7 7 7 5 7 7 8 9 7 7 5 4 4 5 5 5 5 4 4 4 5 7 4 2 6 5 7 10 9 14 14 13 11 11 10 9 9 8 7 7 8 8 8 7 7
8 10 11 12 11 11 9 9 10 9 8 6 6 5 5 4 4 3 3 2 3 3 3 4 2 3 4 1 4 6 6 5 3 2 3 4 3 4 3 3 3 3 6 4 4 5 6 5 4 4 4 4 6 6 6 3 4 5 5 6 6 7 1 2 3 7 7 8 10 14 14 12 11 10 10 9 9 8 7 7 7 8 7 7 8
6 7 10 13 13 12 11 9 9 9 7 5 5 7 6 4 4 3 4 2 3 2 2 5 4 0 2 2 3 5 4 4 4 2 1 2 4 5 4 3 4 4 6 4 5 4 5 4 4 5 4 5 7 7 3 2 5 5 6 6 6 4 4 3 2 8 6 7 10 16 14 13 11 11 11 10 9 9 8 7 6 6 4 6 7
5 7 6 10 15 12 10 11 10 8 9 7 7 7 6 4 3 5 3 2 1 1 3 5 1 1 5 6 5 4 4 3 3 4 2 3 4 3 4 5 3 1 5 4 4 5 4 3 3 4 5 6 7 6 1 3 3 4 3 4 4 4 4 4 2 8 7 7 9 15 14 12 12 12 11 10 9 9 9 8 7 6 7 5 7
5 7 7 6 9 17 14 11 10 10 7 8 6 6 5 6 5 5 4 2 2 2 3 2 6 6 4 6 4 3 3 2 3 3 3 1 1 1 2 0 4 2 2 2 3 1 1 2 1 2 7 7 7 3 3 3 2 3 1 3 2 3 4 2 2 8 7 7 8 12 14 11 10 12 12 10 9 9 8 9 8 7 7 7 6
9 6 6 8 9 8 13 16 12 11 8 7 7 5 5 5 5 5 5 6 3 2 5 5 4 3 5 5 5 3 3 2 2 3 2 2 1 1 1 2 3 1 4 1 1 1 1 3 5 6 7 6 4 3 3 4 1 2 4 2 2 3 1 3 1 7 7 7 7 10 15 13 9 9 13 12 10 9 9 9 8 8 8 7 6
8 7 6 5 8 10 10 12 9 10 11 9 4 4 5 5 5 4 4 5 5 5 4 4 4 5 5 4 3 2 1 2 2 2 2 2 2 0 2 2 3 3 2 0 1 1 3 3 4 4 5 6 3 4 3 3 4 4 4 4 4 2 3 3 2 2 8 7 7 8 14 13 11 8 9 13 12 11 10 9 9 9 9 9 7
7 8 6 4 6 9 11 9 9 6 7 8 7 8 7 5 4 7 6 4 3 3 3 2 2 3 2 3 4 4 4 3 2 0 4 2 1 1 1 1 2 2 2 2 2 2 2 4 5 3 5 4 6 4 2 3 5 5 1 6 3 4 3 5 4 4 7 7 7 7 9 14 13 9 7 10 12 12 11 11 10 10 9 9 9
7 5 4 7 4 8 11 11 8 4 3 9 3 3 3 6 8 4 5 2 3 5 2 2 3 3 4 2 4 5 5 3 4 3 2 3 4 4 4 3 2 2 2 0 1 2 4 5 7 7 5 3 2 3 4 4 2 4 6 6 4 6 4 5 4 5 3 9 8 7 7 8 13 12 10 8 7 11 12 11 11 11 9 10 10
5 5 9 5 5 11 10 8 8 3 5 5 5 4 0 3 6 10 7 3 4 7 4 1 1 2 3 4 5 5 4 5 2 1 3 3 4 3 3 4 3 4 3 3 3 4 4 5 4 6 7 1 1 3 3 3 4 3 4 5 5 4 6 4 4 2 3 9 8 8 7 8 8 12 12 10 9 6 10 12 11 11 10 9 10
6 6 7 6 7 7 8 6 5 5 5 5 0 3 4 4 5 6 10 10 5 4 3 2 4 2 1 1 1 2 2 4 6 2 2 4 3 2 2 2 2 3 4 4 3 5 4 3 5 7 3 1 4 3 2 4 3 4 2 3 2 4 3 5 6 5 3 3 8 7 8 7 7 6 7 11 11 9 7 8 12 10 12 11 11
6 7 8 9 8 8 7 5 5 5 6 4 5 4 5 3 5 5 4 6 10 12 9 7 5 2 1 1 3 2 2 2 7 4 6 5 3 4 1 1 6 5 4 3 5 5 4 3 3 1 1 1 3 2 3 3 3 4 3 0 4 4 4 2 2 4 4 3 2 9 8 7 7 6 7 6 9 11 10 7 10 12 12 12 11
9 8 9 8 9 8 7 6 6 6 7 6 5 5 4 4 4 4 3 1 5 8 9 8 6 4 3 2 2 3 2 5 6 5 3 1 2 3 1 6 6 2 2 6 4 5 5 2 1 0 3 3 3 4 3 2 4 5 3 6 7 7 6 6 5 4 2 4 1 1 6 8 7 8 7 7 6 8 12 11 9 11 12 13 12
8 9 8 9 9 9 7 6 7 6 6 6 6 3 3 4 4 2 3 2 1 3 7 5 5 5 3 1 2 2 3 1 5 4 2 4 6 2 2 5 4 4 9 3 3 5 2 2 2 1 2 3 3 8 7 7 5 7 7 6 5 6 7 7 7 6 7 3 3 4 2 3 9 9 8 7 7 7 11 12 12 11 10 9 12
8 8 8 8 9 8 7 6 7 6 5 5 4 2 4 3 3 5 4 3 3 5 3 4 5 4 4 4 3 2 2 1 3 4 3 1 2 5 2 1 7 6 2 4 3 0 2 2 1 3 4 3 5 6 6 8 6 5 6 6 6 5 6 6 7 7 7 5 4 3 3 5 4 7 7 8 8 8 8 12 14 12 11 9 9
6 8 7 8 8 7 7 7 6 6 7 5 4 6 4 5 2 3 2 3 4 3 4 5 5 4 3 2 3 3 4 2 2 3 3 1 3 5 3 6 5 3 3 4 1 0 1 2 1 1 4 4 4 6 5 4 5 5 5 4 2 3 4 5 4 5 5 7 6 5 3 3 4 2 5 5 7 8 8 8 8 7 8 12 10
5 7 7 9 8 8 7 6 6 6 6 4 5 4 3 3 3 2 3 5 5 3 3 3 4 3 3 3 1 1 2 1 1 2 2 3 5 6 4 4 3 1 2 3 3 2 2 2 3 1 2 3 2 4 5 3 3 1 2 1 1 1 1 3 4 4 4 5 5 6 7 7 4 2 3 3 5 6 8 8 8 8 7 10 14
5 7 7 8 9 9 8 8 7 7 5 5 3 4 3 3 2 4 4 1 4 3 5 6 5 5 7 7 5 5 5 5 5 4 2 1 4 7 5 4 2 1 1 1 1 1 1 1 3 3 2 3 1 2 4 5 2 0 1 1 3 3 1 5 5 4 2 4 4 5 5 5 6 6 7 6 3 1 7 7 8 6 7 6 10
5 8 7 8 9 9 8 8 7 5 5 4 3 3 2 5 3 4 4 3 4 4 4 5 5 5 4 4 3 2 1 3 3 3 2 4 2 3 6 2 3 3 3 3 1 1 2 2 1 2 2 1 1 3 2 2 1 2 1 0 0 0 3 4 4 5 1 1 2 4 4 4 4 4 5 4 5 7 7 4 3 4 8 8 8
6 7 7 8 9 9 8 8 6 6 4 5 4 5 4 5 2 3 3 7 7 5 6 5 4 5 2 3 2 2 1 3 3 1 1 3 3 2 5 2 3 3 4 3 3 1 1 2 2 3 2 1 0 2 3 4 2 2 1 2 0 1 0 1 1 2 1 1 0 1 2 3 3 1 0 2 3 3 2 1 2 3 4 7 6
7 8 8 9 8 8 8 8 7 5 5 5 5 6 5 5 6 8 7 7 6 5 5 4 3 4 4 3 2 2 4 5 6 4 4 2 4 5 4 3 2 2 2 3 2 3 1 2 3 3 3 2 2 0 1 1 1 4 2 1 1 1 1 2 1 1 1 1 0 1 1 3 3 3 2 1 1 0 1 2 1 2 3 5 2
8 9 8 8 6 9 9 9 7 7 6 6 8 7 6 5 6 7 6 6 4 4 4 4 3 3 3 3 2 3 4 3 3 5 5 5 5 5 2 5 2 2 2 4 3 3 3 3 3 3 4 5 5 1 1 2 1 0 1 2 2 1 0 1 1 0 1 1 1 2 1 2 2 1 1 1 1 2 1 0 1 3 1 3 4
9 9 8 8 8 9 9 9 7 7 7 7 8 6 6 6 5 6 4 4 5 4 5 4 3 3 4 2 4 3 4 4 5 5 4 3 1 0 4 1 4 5 5 3 2 4 4 6 4 3 1 1 1 2 2 1 1 0 1 1 0 1 3 1 0 1 1 0 0 0 0 0 1 2 0 1 1 0 1 1 1 1 2 1 6
9 8 8 8 9 9 9 9 8 8 8 8 8 6 6 6 6 4 4 4 4 4 4 4 6 4 4 4 3 2 4 4 3 3 3 4 5 6 5 5 3 1 0 2 4 4 3 6 4 4 5 5 1 2 3 3 1 1 2 2 1 0 0 1 1 1 1 1 1 0 1 2 1 2 2 2 1 1 0 1 0 3 1 1 4
10 8 9 8 10 10 11 10 7 8 7 8 8 6 7 6 5 4 4 4 5 6 4 4 4 4 4 3 3 2 3 3 3 2 3 4 3 3 4 5 5 3 4 7 7 7 6 5 5 5 4 3 4 5 4 2 1 0 2 1 1 2 2 1 2 1 1 1 1 2 2 3 2 3 4 4 3 3 2 2 1 2 2 4 2
11 10 10 9 9 9 10 9 9 9 9 9 8 7 6 6 5 4 4 5 7 5 5 4 3 3 3 2 3 4 4 4 3 3 4 4 4 4 5 6 7 7 7 7 6 5 6 5 5 6 4 4 2 4 4 4 4 4 1 2 3 4 2 3 5 2 1 1 2 2 2 2 3 4 6 5 5 4 4 4 3 5 5 6 6
8 7 9 9 9 9 10 11 10 9 9 9 8 8 7 6 5 4 4 7 6 6 5 5 5 3 3 3 3 4 5 2 3 4 4 4 3 4 3 4 4 4 4 3 4 4 4 4 4 4 4 4 4 5 3 3 3 1 1 2 1 1 3 1 0 1 2 3 3 3 3 3 2 3 6 6 6 5 5 5 5 5 5 6 6
9 8 11 10 10 10 11 11 11 10 10 10 9 8 8 7 5 5 5 8 7 6 6 6 5 3 3 3 3 4 3 5 4 3 4 4 4 3 3 3 4 5 5 4 4 4 3 3 3 5 5 4 4 4 5 4 4 4 4 5 4 4 4 3 5 4 3 3 4 4 5 5 4 4 3 5 4 5 6 7 7 6 7 6 7
Wind_Direction
121 127 125 122 120 121 123 126 126 117 115 112 113 116 115 118 120 121 123 121 119 118 117 115 114 111 108 104 100 96 94 87 81 96 112 105 99 93 93 93 90 97 99 98 99 99 95 89 86 86 85 83 84 82 79 77 77 80 80 79 79 84 85 83 88 98 97 91 88 90 90 90 85 79 75 64 52 30 339 7 81 79 85 84 82
131 127 125 124 120 122 126 129 126 116 114 114 114 115 117 119 119 122 121 119 118 118 117 115 113 111 109 105 102 101 99 95 92 91 110 112 101 99 97 96 100 100 103 105 103 100 96 92 89 87 88 87 86 84 82 82 81 82 82 87 90 91 89 88 94 95 92 93 90 89 87 79 69 75 74 71 66 55 63 67 72 73 64 64 61
125 125 127 124 119 124 128 129 125 117 114 115 115 115 116 117 118 119 120 118 117 115 115 116 114 116 114 111 106 105 103 102 97 94 91 97 99 87 86 101 109 106 103 106 104 98 94 94 92 91 88 90 90 90 92 90 87 84 83 82 87 90 94 101 100 104 105 105 104 96 88 78 76 75 72 63 59 58 60 64 73 74 71 68 67
127 128 125 121 120 125 128 128 122 117 114 114 117 117 117 117 116 118 117 115 116 115 115 116 116 116 117 114 112 109 109 109 104 99 97 94 97 96 90 84 86 95 102 104 104 100 96 94 94 91 90 89 88 83 86 89 88 86 81 83 84 93 101 106 117 117 124 126 122 116 94 90 75 71 72 70 66 67 75 81 74 71 77 76 71
127 126 126 125 125 125 127 127 124 117 115 118 119 120 118 116 114 114 115 116 116 116 114 115 115 116 118 119 118 114 113 111 107 105 102 97 96 96 93 89 83 83 97 97 96 95 99 96 94 91 95 92 88 94 95 97 92 87 89 87 89 101 95 100 106 127 140 151 150 122 99 95 89 75 76 73 71 76 75 70 70 74 72 73 69
128 127 130 129 126 125 124 125 123 120 120 120 120 121 119 118 117 116 118 118 119 117 116 116 117 117 120 122 119 117 115 113 111 110 108 105 99 101 99 98 94 88 94 78 96 103 95 95 94 95 93 89 90 90 96 97 99 94 90 91 97 96 109 115 128 152 144 179 215 323 117 105 93 84 88 85 84 78 77 78 84 84 81 77 75
127 132 130 129 130 129 126 126 126 124 122 122 121 120 120 120 121 123 120 120 118 116 116 117 119 119 120 120 119 118 118 116 114 114 112 112 112 107 107 106 108 100 87 94 121 97 88 86 87 92 87 90 87 88 90 92 100 96 91 90 92 79 98 164 203 184 214 184 240 236 110 97 91 88 78 77 79 76 68 79 76 72 71 69 73
127 133 134 130 129 132 125 126 125 126 127 124 125 125 128 129 130 125 123 120 117 117 117 119 120 120 120 118 118 118 118 115 113 108 109 111 114 124 134 128 128 139 151 179 114 87 95 96 102 99 94 91 87 84 88 90 93 97 95 89 74 352 292 285 257 218 238 244 237 228 112 102 97 92 87 79 82 90 75 62 80 80 79 80 85
132 133 132 126 127 129 127 126 127 129 130 133 132 130 132 135 134 127 123 121 119 119 120 120 121 120 118 119 119 116 115 113 107 103 99 97 92 91 97 111 119 119 112 98 88 82 99 101 100 91 93 88 87 88 89 92 96 95 98 99 104 251 262 272 281 275 259 236 252 115 103 104 101 96 94 82 81 84 89 97 89 75 76 74 76
131 132 126 125 131 120 122 123 126 128 130 132 133 134 135 138 134 126 122 123 123 121 121 121 123 121 122 121 119 117 114 113 109 104 100 96 97 91 88 94 95 100 100 91 96 102 88 86 88 95 91 88 87 90 91 94 97 97 100 113 207 261 288 288 292 297 254 268 84 67 80 89 89 97 101 108 99 83 73 72 70 76 83 78 80
129 128 127 122 128 124 122 120 124 128 129 130 132 134 136 133 128 126 128 129 127 124 125 123 122 124 123 122 120 118 117 112 109 107 105 102 100 96 93 91 96 101 98 96 94 92 99 92 87 91 95 97 98 100 100 101 100 101 104 151 230 266 283 286 290 274 284 205 100 97 96 95 88 90 103 108 95 78 73 75 87 90 86 80 76
128 123 119 120 125 123 122 121 122 125 128 129 131 133 134 129 128 130 130 127 123 123 120 120 122 123 126 124 122 121 119 117 113 112 109 110 107 104 105 107 105 104 102 101 100 108 102 99 102 107 107 104 103 104 111 113 111 112 124 210 240 260 265 276 284 278 279 85 87 96 96 96 96 93 90 99 104 93 79 86 96 90 84 85 88
126 118 116 121 123 124 121 119 123 125 126 130 133 131 130 130 130 129 127 125 123 120 119 118 119 121 125 125 122 121 120 116 113 114 113 115 118 115 113 115 111 109 113 111 108 110 107 106 109 111 113 110 112 116 126 131 132 128 160 225 245 259 287 305 304 301 249 109 101 100 95 95 100 105 111 109 111 105 98 99 98 88 92 97 92
120 118 121 122 122 121 117 119 122 124 126 129 127 124 126 128 129 123 121 123 122 119 117 119 121 122 124 125 124 121 118 118 119 117 119 121 123 120 118 120 121 123 123 120 116 113 113 114 116 119 118 118 126 142 141 145 142 150 182 219 259 294 307 299 278 272 241 90 94 98 107 107 113 124 128 124 108 107 108 98 96 96 94 93 91
122 126 126 121 122 122 120 121 123 119 118 117 111 110 113 120 121 121 123 123 121 120 119 121 126 127 125 124 123 119 120 121 122 120 121 122 126 128 127 129 130 132 130 128 128 125 122 123 123 122 122 123 136 133 148 152 156 165 192 229 251 287 299 297 301 299 98 97 91 102 98 101 107 109 115 120 122 111 111 107 95 98 95 93 103
128 127 124 126 125 126 128 128 117 112 110 106 109 116 118 119 119 120 120 119 113 114 118 121 122 124 123 120 119 121 124 127 120 116 116 123 127 135 137 139 143 139 140 137 131 132 133 130 129 129 125 121 114 107 90 173 187 181 194 215 249 275 285 297 293 309 93 105 98 97 101 107 113 115 125 120 113 116 110 112 109 101 96 91 95
127 129 130 131 131 136 136 141 121 113 108 105 106 115 112 109 109 109 108 109 113 114 118 122 122 123 116 95 92 98 127 106 116 117 123 128 134 134 146 151 153 149 145 142 137 141 140 139 139 136 131 124 112 100 98 81 207 229 211 211 232 261 265 290 300 293 115 132 110 108 107 111 110 115 118 121 131 126 124 121 115 105 101 95 88
132 133 132 134 138 142 146 131 129 128 122 102 94 101 115 111 112 113 111 112 119 119 118 114 110 112 107 103 93 93 110 105 130 115 113 127 128 136 144 162 161 155 152 141 146 151 150 151 148 146 138 131 126 120 114 115 175 249 255 248 240 249 259 279 263 271 85 51 90 104 109 119 122 121 127 133 128 128 126 116 118 112 104 102 96
126 128 115 125 138 142 141 134 135 134 135 126 122 106 111 120 117 118 119 123 125 124 118 116 114 111 105 104 108 91 94 110 89 102 112 119 151 154 155 158 165 161 153 150 155 162 158 156 159 154 146 137 137 131 131 126 141 249 276 272 273 285 305 297 277 239 80 95 89 101 110 123 123 123 139 133 140 134 128 127 119 120 113 108 110
100 122 129 130 134 148 142 146 147 140 140 138 130 125 113 117 126 123 122 123 129 133 127 123 119 115 113 118 123 119 97 107 142 125 97 197 160 191 151 158 164 167 162 159 163 163 161 165 164 160 152 148 143 149 145 146 144 199 270 281 288 311 303 273 272 202 104 107 113 109 126 124 128 131 136 140 131 131 136 130 128 119 119 117 111
144 117 106 136 150 148 149 149 151 145 144 138 136 132 129 121 123 121 122 125 124 126 121 112 107 117 119 118 106 98 79 66 146 198 166 196 239 322 160 165 169 169 171 169 169 168 170 172 167 160 158 156 156 155 169 159 161 189 236 277 291 289 264 266 263 102 113 113 114 122 127 131 131 132 140 138 134 137 134 141 134 128 124 118 113
106 73 99 129 144 148 151 149 153 158 148 135 146 139 143 148 143 138 134 125 130 129 138 144 132 125 129 141 145 100 89 45 43 265 194 193 219 218 163 168 174 177 179 177 179 178 176 179 172 172 169 171 171 173 173 193 185 177 204 247 284 271 270 261 343 99 103 113 116 130 133 133 138 134 142 142 144 145 149 139 138 134 128 122 114
117 143 165 156 157 152 152 144 147 148 148 143 156 147 154 162 147 153 145 157 159 160 159 156 135 141 170 139 109 79 147 204 199 204 203 211 189 199 173 176 181 177 167 175 174 182 179 180 179 181 182 184 189 237 189 182 198 192 184 203 241 263 262 267 223 67 115 113 118 136 134 132 138 141 144 145 146 149 146 147 142 140 128 120 114
144 154 165 169 156 148 147 144 142 146 146 146 149 158 156 168 149 156 157 165 158 171 173 156 139 149 139 140 105 124 171 198 226 211 196 196 164 181 177 179 181 177 169 176 179 183 187 188 182 184 190 208 229 233 225 180 179 180 181 192 226 247 227 254 263 108 119 119 124 133 133 138 146 150 148 149 152 149 147 147 144 141 142 132 123
147 151 148 147 150 144 141 141 146 152 139 146 143 150 146 150 141 160 120 139 204 193 187 122 352 142 166 60 136 151 176 182 173 230 181 195 166 165 165 190 179 177 172 202 174 188 190 192 185 191 212 226 238 235 224 172 171 179 190 202 217 235 195 264 276 94 111 124 131 134 132 136 140 142 151 153 154 149 146 148 151 148 144 144 138
141 143 144 142 136 144 144 143 146 146 136 139 152 138 137 145 145 126 142 144 191 214 157 38 155 356 16 232 211 165 185 181 136 196 258 195 190 163 173 191 185 194 171 211 187 170 199 213 185 195 222 230 243 248 206 300 183 189 197 205 210 165 204 229 228 103 108 123 139 136 132 140 146 150 150 159 158 152 147 149 149 153 149 159 145
172 134 152 133 138 134 143 149 147 146 152 155 148 144 152 145 125 144 147 169 213 118 9 108 37 265 146 212 213 177 182 177 139 149 210 209 195 187 181 183 175 291 175 219 202 165 188 218 216 194 210 235 238 243 243 227 226 189 236 200 196 177 190 226 134 115 123 128 138 137 134 146 153 152 152 160 162 160 151 152 153 152 160 163 162
133 133 132 132 168 147 160 154 147 154 152 153 146 157 144 141 146 160 151 87 93 53 58 122 159 203 202 202 204 200 166 164 144 171 167 106 249 234 214 200 148 121 358 305 356 128 158 112 213 5 273 237 234 191 212 226 243 305 233 248 142 210 175 196 182 118 128 137 143 145 138 147 155 158 155 157 163 161 159 157 153 153 160 170 166
118 137 133 155 165 127 145 145 155 156 145 155 159 148 141 134 130 132 140 146 161 194 172 150 153 188 227 212 194 172 159 146 164 174 143 146 202 235 154 124 90 152 197 100 44 9 78 220 226 180 227 249 247 214 210 222 153 271 282 226 233 195 216 114 212 133 134 138 144 152 148 152 163 166 160 159 161 168 161 163 157 154 157 164 168
142 134 172 193 136 141 135 125 159 150 147 152 153 142 148 156 153 147 141 139 158 142 132 129 136 175 216 205 185 195 183 160 186 168 125 175 212 134 66 73 146 215 107 83 138 63 251 286 283 238 215 230 245 218 219 201 164 229 216 252 180 236 153 115 184 220 133 138 144 157 157 157 165 171 169 163 166 165 165 168 165 161 164 164 165
153 162 161 122 105 140 120 141 109 108 151 136 153 155 162 170 165 144 135 125 109 89 95 109 138 179 197 200 194 194 167 199 153 121 129 157 313 60 120 172 191 187 145 172 100 199 300 290 268 247 245 216 217 201 201 242 180 208 220 262 199 193 163 165 209 177 154 141 142 156 166 165 166 168 175 174 171 169 170 174 173 171 166 173 169
144 146 112 101 163 127 116 98 94 47 54 110 105 133 170 160 165 114 82 83 127 116 116 165 176 200 187 174 187 201 179 137 121 251 98 162 193 197 161 201 198 148 157 131 210 230 232 249 271 256 240 271 341 330 193 237 212 195 193 235 230 164 191 166 205 174 172 143 143 156 163 174 172 171 178 184 183 176 173 176 179 172 177 176 179
141 124 102 128 77 82 91 98 102 89 76 83 85 86 80 83 87 107 116 106 1 28 30 344 242 226 167 183 191 194 161 139 107 193 259 210 215 221 196 168 175 154 156 182 220 251 209 230 251 294 292 178 260 275 301 200 260 228 191 221 229 201 176 178 172 218 197 145 153 156 165 174 175 177 181 180 191 186 183 180 182 180 180 181 181
139 106 117 97 85 83 91 99 119 106 93 89 330 102 83 92 108 110 134 135 130 108 185 298 293 272 190 217 245 199 156 143 133 187 310 255 238 241 238 159 131 116 64 23 282 256 225 228 199 239 176 194 198 199 249 297 259 272 242 262 209 198 188 177 159 208 209 176 157 159 163 170 168 172 182 187 185 193 200 193 186 189 180 189 188
119 119 118 102 91 98 102 112 107 98 98 88 72 85 28 26 79 93 97 147 141 153 160 184 199 209 190 186 237 286 184 142 125 161 198 214 232 234 242 46 55 43 88 257 266 271 236 224 283 287 146 180 269 179 175 250 271 258 223 47 350 346 351 325 171 186 172 215 163 154 164 159 165 167 179 178 194 191 195 205 198 192 193 190 197
120 128 116 112 110 103 106 99 98 92 77 82 73 57 68 62 80 87 79 314 152 145 150 154 174 179 179 208 215 198 228 163 151 158 219 264 285 276 12 42 36 12 214 223 223 241 233 163 275 78 316 220 217 219 167 215 269 292 359 25 14 359 349 347 354 326 247 170 161 231 144 152 163 172 175 174 183 196 196 198 205 202 197 198 201
125 129 130 121 117 113 111 110 105 103 95 87 82 82 110 88 75 99 165 188 35 135 132 135 132 125 110 72 262 206 227 305 134 130 167 209 191 188 21 91 138 206 195 179 268 276 317 195 195 32 15 326 350 15 17 17 12 31 34 29 7 5 354 357 347 340 332 326 195 206 161 162 161 174 171 174 174 189 197 201 204 210 214 206 200
130 130 133 128 122 120 121 118 111 105 104 96 117 129 87 92 75 57 20 57 36 31 61 124 132 141 133 148 175 100 51 3 106 146 162 252 38 65 70 177 207 206 122 120 221 319 360 3 16 32 24 22 49 57 15 9 354 32 37 32 17 358 344 345 346 340 328 310 312 302 198 180 180 166 177 173 180 182 187 198 203 209 210 217 205
136 134 140 125 125 124 118 120 114 109 106 120 87 79 70 78 118 117 153 115 77 34 48 54 49 52 74 83 54 88 97 36 68 123 116 143 136 107 82 261 215 172 152 143 168 212 95 56 31 52 47 28 40 89 100 49 335 6 32 23 360 7 345 326 323 325 328 332 333 322 282 183 170 206 176 192 178 174 175 186 193 198 215 210 212
138 142 148 132 130 126 127 127 125 119 118 121 134 128 138 125 125 159 75 44 61 61 56 97 86 68 116 130 156 103 104 163 148 138 146 145 120 112 151 263 53 114 163 167 166 172 180 149 142 102 57 57 63 73 83 89 312 349 58 291 208 265 318 267 307 315 333 341 349 353 349 4 322 222 196 194 228 151 177 175 183 193 206 207 210
147 150 155 141 136 140 141 140 133 134 143 144 160 152 139 119 114 106 106 117 94 109 68 41 52 53 16 31 36 33 28 28 4 25 17 117 132 130 161 186 147 136 113 126 121 173 167 175 122 112 120 102 102 115 121 136 187 170 119 218 195 180 257 310 307 305 320 359 346 347 345 349 9 358 1 342 314 228 158 176 180 191 199 194 207
172 162 167 149 147 142 147 137 137 151 145 152 137 113 113 129 173 128 145 126 135 129 92 89 71 43 46 37 36 21 56 43 21 22 34 340 47 124 141 176 146 125 112 109 145 182 200 177 128 92 85 130 168 114 102 115 164 156 138 170 261 226 187 217 260 284 26 301 353 339 347 340 342 355 354 11 6 7 14 12 312 226 199 200 193
180 175 170 154 150 147 143 142 147 148 148 125 114 89 62 51 38 59 85 90 58 56 80 76 87 113 102 101 38 358 7 136 149 155 20 33 11 59 99 116 119 122 130 138 155 169 189 207 124 113 101 11 306 227 178 180 147 170 150 74 134 213 16 192 223 269 347 28 18 311 310 296 291 307 21 20 20 15 2 74 102 281 293 261 202
189 187 174 164 155 153 146 146 149 146 130 130 111 99 91 79 60 58 55 73 83 79 79 75 96 80 70 57 71 23 34 24 12 59 77 36 17 8 91 87 119 146 129 138 137 105 69 68 94 132 137 42 289 88 11 133 219 135 134 201 123 59 182 114 213 235 283 293 151 242 350 328 319 330 54 59 42 223 87 51 331 281 307 336 317
198 193 178 170 163 155 150 147 151 140 138 124 113 109 108 90 78 77 80 94 108 111 119 109 92 108 99 87 57 48 48 48 35 26 53 37 30 6 359 130 132 167 152 136 152 153 130 91 96 141 151 162 186 149 139 189 224 306 62 135 120 172 164 151 282 201 225 211 122 65 37 321 340 9 293 83 219 62 79 130 258 253 125 24 22
205 194 186 170 169 154 151 145 150 137 140 127 121 125 126 121 123 118 122 122 128 147 120 136 153 92 99 79 62 65 52 35 43 41 23 33 50 326 341 47 66 43 28 14 92 113 102 129 114 100 139 64 110 126 112 47 111 266 315 349 119 144 147 95 356 328 322 25 276 175 172 301 330 292 105 213 119 209 165 200 188 51 29 82 283
216 192 182 180 170 156 153 150 151 140 140 132 133 139 129 130 136 139 156 153 140 102 98 87 97 103 78 92 105 65 82 63 55 62 40 37 30 15 8 7 88 123 171 62 51 64 102 79 119 115 102 108 209 102 120 139 137 123 6 338 53 59 107 132 113 137 306 312 273 194 217 207 254 305 304 334 225 218 201 241 135 87 113 219 226
237 206 184 182 173 159 156 152 151 142 145 138 143 142 136 142 149 158 167 146 114 112 108 92 86 95 124 124 118 119 96 101 86 74 90 63 38 37 12 4 2 29 51 54 39 38 37 36 28 104 130 135 122 104 100 103 77 31 222 201 182 148 199 149 151 169 173 215 257 275 243 219 195 230 232 240 240 232 204 190 147 141 179 214 256
225 209 185 180 172 161 156 153 151 143 148 144 146 149 139 147 153 153 165 118 117 118 115 119 109 113 129 134 83 86 58 51 66 71 59 63 67 40 25 22 23 15 50 51 42 41 46 31 25 34 50 55 68 123 146 155 148 127 133 274 212 200 195 198 165 173 189 180 255 232 265 242 211 225 224 219 214 204 205 220 193 181 194 217 214
199 279 211 177 170 165 158 158 152 147 149 149 150 151 143 150 160 160 156 129 134 143 134 125 124 153 109 92 121 109 115 118 70 56 64 64 46 55 48 36 31 51 70 87 98 68 41 43 39 42 34 46 41 38 50 69 87 103 225 204 254 223 170 143 210 206 251 209 263 287 237 240 242 215 190 199 205 214 215 199 203 208 204 211 211
165 198 242 185 172 168 162 163 154 148 152 153 154 155 147 156 169 167 149 139 151 148 132 137 139 149 139 138 140 124 116 95 100 80 74 58 49 45 55 63 41 21 31 54 64 76 93 103 79 57 38 49 37 42 44 46 61 42 17 30 31 29 44 48 47 18 6 9 357 346 346 326 326 316 239 197 191 204 206 201 206 205 208 206 211